TimeEST,TemperatureF,Dew PointF,Humidity,Sea Level PressureIn,VisibilityMPH,Wind Direction,Wind SpeedMPH,Gust SpeedMPH,PrecipitationIn,Events,Conditions,WindDirDegrees,DateUTC
12:18 AM,23.0,6.8,50,30.17,10.0,East,3.5,-,N/A,,Overcast,80,2013-01-24 05:18:00
12:39 AM,23.0,8.6,54,30.16,10.0,ENE,5.8,-,N/A,,Overcast,60,2013-01-24 05:39:00
1:00 AM,21.2,10.4,63,30.16,7.0,NNE,4.6,-,N/A,,Overcast,30,2013-01-24 06:00:00
1:21 AM,21.2,12.2,68,30.15,3.0,NE,6.9,-,N/A,,Overcast,50,2013-01-24 06:21:00
1:42 AM,19.4,15.8,86,30.15,1.8,ENE,5.8,-,N/A,,Overcast,60,2013-01-24 06:42:00
2:03 AM,19.4,15.8,86,30.15,1.8,ENE,3.5,-,N/A,,Overcast,60,2013-01-24 07:03:00
2:27 AM,19.4,15.8,86,30.14,2.0,NE,4.6,-,N/A,,Unknown,50,2013-01-24 07:27:00
2:48 AM,19.4,17.6,93,30.13,1.8,NE,4.6,-,N/A,,Unknown,50,2013-01-24 07:48:00
3:09 AM,19.4,15.8,86,30.13,2.0,East,4.6,-,N/A,,Unknown,80,2013-01-24 08:09:00
3:30 AM,19.4,15.8,86,30.13,2.5,ENE,6.9,-,N/A,,Unknown,70,2013-01-24 08:30:00
3:51 AM,19.4,14.0,80,30.13,2.5,ENE,3.5,-,N/A,,Unknown,70,2013-01-24 08:51:00
4:12 AM,19.4,15.8,86,30.13,1.5,NE,3.5,-,N/A,,Overcast,50,2013-01-24 09:12:00
4:33 AM,19.4,15.8,86,30.14,2.0,NE,3.5,-,N/A,,Unknown,40,2013-01-24 09:33:00
4:54 AM,19.4,15.8,86,30.15,2.0,NNE,5.8,-,N/A,,Unknown,30,2013-01-24 09:54:00
5:15 AM,17.6,14.0,86,30.16,3.0,NE,3.5,-,N/A,,Unknown,40,2013-01-24 10:15:00
5:39 AM,17.6,14.0,86,30.18,3.0,NE,9.2,-,N/A,,Unknown,40,2013-01-24 10:39:00
6:00 AM,17.6,12.2,79,30.19,3.0,NE,5.8,-,N/A,,Overcast,40,2013-01-24 11:00:00
6:21 AM,17.6,14.0,86,30.20,2.5,NNE,4.6,-,N/A,,Overcast,20,2013-01-24 11:21:00
6:42 AM,17.6,14.0,86,30.21,5.0,NNE,5.8,-,N/A,,Scattered Clouds,20,2013-01-24 11:42:00
7:03 AM,17.6,12.2,79,30.23,10.0,North,5.8,-,N/A,,Overcast,10,2013-01-24 12:03:00
7:24 AM,17.6,12.2,79,30.24,5.0,North,5.8,-,N/A,,Overcast,10,2013-01-24 12:24:00
8:27 AM,17.6,10.4,73,30.29,10.0,NNW,3.5,-,N/A,,Clear,330,2013-01-24 13:27:00
8:48 AM,19.4,10.4,68,30.30,10.0,NNW,6.9,-,N/A,,Clear,340,2013-01-24 13:48:00
9:09 AM,19.4,10.4,68,30.32,10.0,North,6.9,-,N/A,,Clear,360,2013-01-24 14:09:00
9:30 AM,21.2,12.2,68,30.33,10.0,North,5.8,-,N/A,,Clear,350,2013-01-24 14:30:00
9:54 AM,21.2,12.2,68,30.33,10.0,NNW,8.1,-,N/A,,Clear,330,2013-01-24 14:54:00
10:15 AM,23.0,12.2,63,30.34,10.0,NW,6.9,-,N/A,,Clear,320,2013-01-24 15:15:00
10:36 AM,23.0,10.4,59,30.35,10.0,North,10.4,-,N/A,,Clear,350,2013-01-24 15:36:00
10:57 AM,24.8,10.4,54,30.35,10.0,NNW,11.5,17.3,N/A,,Scattered Clouds,330,2013-01-24 15:57:00
11:18 AM,24.8,10.4,54,30.36,10.0,NNW,10.4,16.1,N/A,,Scattered Clouds,340,2013-01-24 16:18:00
11:39 AM,26.6,12.2,55,30.37,10.0,NW,11.5,17.3,N/A,,Scattered Clouds,310,2013-01-24 16:39:00
11:57 AM,24.8,10.4,54,30.37,10.0,NW,8.1,21.9,N/A,,Scattered Clouds,310,2013-01-24 16:57:00
12:54 PM,26.6,10.4,51,30.37,10.0,NW,15.0,20.7,N/A,,Mostly Cloudy,320,2013-01-24 17:54:00
1:15 PM,28.4,10.4,47,30.38,10.0,NW,11.5,21.9,N/A,,Mostly Cloudy,320,2013-01-24 18:15:00
1:57 PM,26.6,6.8,43,30.39,10.0,NW,16.1,23.0,N/A,,Clear,310,2013-01-24 18:57:00
2:18 PM,28.4,3.2,34,30.39,10.0,NW,13.8,24.2,N/A,,Clear,320,2013-01-24 19:18:00
2:39 PM,28.4,5.0,37,30.39,10.0,NW,13.8,23.0,N/A,,Clear,310,2013-01-24 19:39:00
3:00 PM,28.4,3.2,34,30.40,10.0,NNW,10.4,19.6,N/A,,Clear,330,2013-01-24 20:00:00
3:21 PM,26.6,1.4,34,30.42,10.0,NW,17.3,24.2,N/A,,Clear,310,2013-01-24 20:21:00
4:03 PM,26.6,1.4,34,30.44,10.0,NW,11.5,23.0,N/A,,Clear,310,2013-01-24 21:03:00
4:24 PM,26.6,1.4,34,30.45,10.0,NW,9.2,-,N/A,,Clear,310,2013-01-24 21:24:00
4:45 PM,24.8,1.4,36,30.46,10.0,NW,12.7,18.4,N/A,,Clear,310,2013-01-24 21:45:00
5:06 PM,23.0,1.4,39,30.45,10.0,NW,11.5,17.3,N/A,,Clear,310,2013-01-24 22:06:00
5:30 PM,23.0,1.4,39,30.47,10.0,NW,4.6,-,N/A,,Clear,320,2013-01-24 22:30:00
5:51 PM,23.0,1.4,39,30.48,10.0,WNW,6.9,17.3,N/A,,Clear,290,2013-01-24 22:51:00
6:12 PM,21.2,1.4,42,30.49,10.0,WNW,8.1,-,N/A,,Clear,290,2013-01-24 23:12:00
6:33 PM,21.2,1.4,42,30.50,10.0,WNW,5.8,-,N/A,,Clear,300,2013-01-24 23:33:00
6:54 PM,21.2,1.4,42,30.50,10.0,NW,6.9,-,N/A,,Clear,310,2013-01-24 23:54:00
7:15 PM,21.2,1.4,42,30.51,10.0,WNW,3.5,-,N/A,,Clear,300,2013-01-25 00:15:00
7:36 PM,21.2,1.4,42,30.53,10.0,WNW,4.6,-,N/A,,Clear,300,2013-01-25 00:36:00
7:57 PM,19.4,1.4,46,30.53,10.0,NW,4.6,-,N/A,,Clear,310,2013-01-25 00:57:00
8:18 PM,19.4,1.4,46,30.52,10.0,WNW,4.6,-,N/A,,Clear,300,2013-01-25 01:18:00
8:39 PM,19.4,1.4,46,30.52,10.0,WNW,4.6,-,N/A,,Clear,300,2013-01-25 01:39:00
9:00 PM,17.6,1.4,49,30.52,10.0,Calm,Calm,-,N/A,,Clear,0,2013-01-25 02:00:00
9:21 PM,17.6,1.4,49,30.52,10.0,WNW,3.5,-,N/A,,Clear,300,2013-01-25 02:21:00
9:42 PM,15.8,3.2,58,30.52,10.0,Calm,Calm,-,N/A,,Clear,0,2013-01-25 02:42:00
10:06 PM,14.0,3.2,62,30.52,10.0,Calm,Calm,-,N/A,,Clear,0,2013-01-25 03:06:00
10:27 PM,12.2,3.2,67,30.53,10.0,Calm,Calm,-,N/A,,Clear,0,2013-01-25 03:27:00
10:48 PM,12.2,3.2,67,30.53,10.0,West,3.5,-,N/A,,Clear,280,2013-01-25 03:48:00
11:09 PM,12.2,5.0,73,30.53,10.0,Calm,Calm,-,N/A,,Clear,0,2013-01-25 04:09:00
11:30 PM,12.2,5.0,73,30.53,10.0,Calm,Calm,-,N/A,,Clear,0,2013-01-25 04:30:00
11:51 PM,12.2,3.2,67,30.53,10.0,Calm,Calm,-,N/A,,Clear,0,2013-01-25 04:51:00